Regional Weather Roundup
Issued by NWS

Home | Current Version | Previous Version | Text Only | Print | Product List | Glossary Off
Versions: 1 2 3 4 5 6 7 8 9 10 11 12 13 14 15 16 17 18 19 20 21 22 23 24 25 26 27 28 29 30 31 32 33 34 35 36 37 38 39 40 41 42 43 44 45 46 47 48 49 50

467
ASUS45 KSLC 100910
RWRUT

UTAH REGIONAL WEATHER ROUNDUP
NATIONAL WEATHER SERVICE SALT LAKE CITY UT
200 AM MST WED FEB 10 2016

UTZ001>011-023>025-101000-

NORTHERN UTAH

CITY           SKY/WX    TMP DP  RH WIND       PRES   REMARKS
BRIGHAM CITY   MOCLDY    12   8  85 CALM      30.49S
HILL AFB       PTCLDY    25  19  77 E2        30.45F
LOGAN          FOG        2   1  96 CALM      30.49S VSB 1/4
OGDEN          PTCLDY    23  22  96 S6        30.46F WCI  16
PROVO AIRPORT  MOCLDY   N/A N/A N/A CALM      30.46S VSB<1/4
SALT LAKE CITY FOG       26  24  92 N5        30.47F VSB 1/4 WCI  20
VERNAL         CLOUDY    11   7  84 W5        30.49S FOG     WCI   3
WENDOVER       CLOUDY    28  27  93 CALM      30.47F
HEBER CITY     FOG        9   7  92 CALM      30.44S VSB 1/4
WEST JORDAN    CLEAR     25  21  86 CALM      30.48S

$$

UTZ012>022-026-027-101000-

SOUTHERN/CENTRAL UTAH

CITY           SKY/WX    TMP DP  RH WIND       PRES   REMARKS
BLANDING       PTCLDY    29  17  59 N5        30.49R WCI  24
BRYCE CANYON   PTCLDY    17   7  64 W12       30.48S WCI   4
CEDAR CITY     PTCLDY    18  15  88 E5        30.41F FOG     WCI  11
DELTA          CLOUDY     8   6  90 E3        30.46F VSB 1/4
HANKSVILLE     MOCLDY    27  27 100 CALM      30.49S
MILFORD        FOG        9   5  84 SW9       30.44F VSB 1/2 WCI  -4
MOAB/CYNLANDS  MOCLDY    21  19  92 CALM      30.45S
PRICE          PTCLDY    22  16  78 NE3       30.43S
ST GEORGE      MOSUNNY   41  25  52 SE5       30.38S
KANAB          CLEAR     39  27  60 NW15      30.43R WCI  31

$$

REGIONAL REPORTS     COLORADO/ARIZONA

CITY           SKY/WX    TMP DP  RH WIND       PRES   REMARKS
CRAIG, CO      CLOUDY    -1  -5  82 CALM      30.46S
GRAND JUNCTION CLOUDY    20  18  92 E3        30.46R
RIFLE          CLOUDY    16  11  80 CALM      30.49R
MONTROSE       CLOUDY    23  15  71 S8        30.48S WCI  14
CORTEZ         CLOUDY    20  16  84 NE7       30.43R WCI  11
PAGE, AZ       CLEAR     35  26  69 CALM      30.42R
GRAND CANYON   PTCLDY    25  17  72 NE3       30.43R
KINGMAN        CLEAR     48  22  35 N3        30.30S
FLAGSTAFF      CLEAR     24  12  60 NE3       30.42R

$$

REGIONAL REPORTS    NEVADA/IDAHO/WYOMING

CITY           SKY/WX    TMP DP  RH WIND       PRES   REMARKS
LAS VEGAS, NV  PTCLDY    52  27  38 SW3       30.23F
ELY            MOCLDY    14   7  73 S17       30.43S WCI  -3
ELKO           CLOUDY    11   7  84 E7        30.45S WCI   0
POCATELLO, ID  FOG       19  18  95 N3        30.42S VSB<1/4
BURLEY         PTCLDY    25  23  92 NE5       30.38R WCI  19
EVANSTON, WY   CLOUDY    28  18  66 S6        30.41F WCI  22
ROCK SPRINGS   CLOUDY    29  19  66 W13       30.38R WCI  19

$$




USA.gov is the U.S. government's official web portal to all federal, state and local government web resources and services.